Weather History for KAQP - October, 2011

Change the Weather History Date:

Sunday, October 30, 2011

  Actual Average Record
Temperature  
Mean Temperature 42 °F -  
Max Temperature 44 °F 47 °F 69 °F (2008)
Min Temperature 39 °F 29 °F 15 °F (1996)
Degree Days  
Heating Degree Days 24    
Moisture  
Dew Point 34 °F    
Average Humidity 74    
Maximum Humidity 93    
Minimum Humidity 42    
Precipitation  
Precipitation 0.00 in - - ()
Sea Level Pressure  
Sea Level Pressure 29.86 in    
Wind  
Wind Speed 11 mph (WNW)    
Max Wind Speed 18 mph    
Max Gust Speed 24 mph    
Visibility 10 miles    
Events Rain    
Averages and records for this station are not official NWS values.
T = Trace of Precipitation, MM = Missing Value Source: NWS Daily Summary

Daily Weather History Graph

Daily Weather History Graph

Search for Another Location

Airport or City:

Trip Planner

Search our weather history database for the weather conditions in past years. The results will help you decide how hot, cold, wet, or windy it might be!

Date:

Astronomy

Oct. 30, 2011 Rise Set
Actual Time 7:59 AM CDT 6:14 PM CDT
Civil Twilight 7:29 AM CDT 6:45 PM CDT
Nautical Twilight 6:54 AM CDT 7:20 PM CDT
Astronomical Twilight 6:20 AM CDT 7:54 PM CDT
Moon 12:28 PM CDT (10/30) 9:37 PM CDT (10/30)
Length of Visible Light 11h 16m
Length of Day
10h 14m
Waxing Crescent, 20% of the Moon is Illuminated
Oct 30
Waxing Crescent
Nov 2
First Quarter
Nov 10
Full
Nov 18
Last Quarter
Nov 25
New

Hourly Weather History & Observations

Time (CDT) Temp. Windchill Dew Point Humidity Pressure Visibility Wind Dir Wind Speed Gust Speed Precip Events Conditions
12:15 AM 42.8 °F 37.5 °F 21.2 °F 42% 29.78 in 10.0 mi SE 9.2 mph - N/A   Scattered Clouds
12:34 AM 42.8 °F 38.0 °F 21.2 °F 42% 29.78 in 10.0 mi SE 8.1 mph - N/A   Overcast
12:54 AM 42.8 °F 41.1 °F 23.0 °F 46% 29.78 in 10.0 mi SSE 3.5 mph - N/A   Mostly Cloudy
1:15 AM 39.2 °F - 23.0 °F 52% 29.79 in 10.0 mi Calm Calm - N/A   Scattered Clouds
1:35 AM 42.8 °F 40.1 °F 23.0 °F 46% 29.78 in 10.0 mi SSE 4.6 mph - N/A   Mostly Cloudy
1:54 AM 42.8 °F 39.3 °F 24.8 °F 49% 29.78 in 10.0 mi South 5.8 mph - N/A   Mostly Cloudy
2:14 AM 42.8 °F 39.3 °F 24.8 °F 49% 29.78 in 10.0 mi SSW 5.8 mph - N/A   Mostly Cloudy
2:55 AM 41.0 °F 34.7 °F 26.6 °F 57% 29.79 in 10.0 mi WSW 10.4 mph - N/A   Scattered Clouds
3:14 AM 41.0 °F 35.2 °F 26.6 °F 57% 29.78 in 10.0 mi West 9.2 mph - N/A   Mostly Cloudy
3:35 AM 42.8 °F 35.8 °F 35.6 °F 76% 29.78 in 10.0 mi NW 13.8 mph - N/A Rain Light Rain
3:54 AM 42.8 °F 35.8 °F 39.2 °F 87% 29.78 in 10.0 mi NW 13.8 mph 20.7 mph N/A Rain Rain
4:15 AM 41.0 °F 34.7 °F 39.2 °F 93% 29.78 in 10.0 mi NW 10.4 mph - N/A   Mostly Cloudy
4:35 AM 41.0 °F 35.2 °F 39.2 °F 93% 29.79 in 10.0 mi WNW 9.2 mph - N/A   Scattered Clouds
4:55 AM 42.8 °F 36.2 °F 39.2 °F 87% 29.79 in 10.0 mi WNW 12.7 mph - N/A   Mostly Cloudy
5:15 AM 42.8 °F 36.2 °F 39.2 °F 87% 29.79 in 10.0 mi WNW 12.7 mph - N/A   Overcast
5:35 AM 42.8 °F 35.8 °F 39.2 °F 87% 29.79 in 10.0 mi WNW 13.8 mph 18.4 mph N/A   Overcast
5:55 AM 42.8 °F 35.4 °F 39.2 °F 87% 29.81 in 10.0 mi WNW 15.0 mph - N/A   Overcast
6:15 AM 42.8 °F 35.4 °F 39.2 °F 87% 29.81 in 10.0 mi WNW 15.0 mph - N/A   Overcast
6:35 AM 42.8 °F 35.8 °F 39.2 °F 87% 29.82 in 10.0 mi NW 13.8 mph 21.9 mph N/A   Drizzle
6:55 AM 42.8 °F 37.0 °F 39.2 °F 87% 29.82 in 10.0 mi NW 10.4 mph - N/A   Light Drizzle
7:15 AM 42.8 °F 34.8 °F 39.2 °F 87% 29.82 in 10.0 mi NW 17.3 mph - N/A   Overcast
7:35 AM 42.8 °F 35.8 °F 37.4 °F 81% 29.83 in 10.0 mi WNW 13.8 mph - N/A   Overcast
8:15 AM 41.0 °F 33.9 °F 35.6 °F 81% 29.84 in 10.0 mi WNW 12.7 mph - N/A   Overcast
8:34 AM 39.2 °F 32.0 °F 35.6 °F 87% 29.85 in 10.0 mi WNW 11.5 mph - N/A   Overcast
8:54 AM 39.2 °F 31.6 °F 35.6 °F 87% 29.85 in 10.0 mi WNW 12.7 mph - N/A   Overcast
9:14 AM 41.0 °F 34.7 °F 35.6 °F 81% 29.85 in 10.0 mi WNW 10.4 mph - N/A   Overcast
9:34 AM 41.0 °F 34.3 °F 35.6 °F 81% 29.86 in 10.0 mi WNW 11.5 mph - N/A   Overcast
9:54 AM 41.0 °F 33.9 °F 35.6 °F 81% 29.86 in 10.0 mi WNW 12.7 mph - N/A   Overcast
10:14 AM 41.0 °F 33.5 °F 35.6 °F 81% 29.86 in 10.0 mi WNW 13.8 mph - N/A   Overcast
10:35 AM 41.0 °F 33.5 °F 35.6 °F 81% 29.86 in 10.0 mi WNW 13.8 mph - N/A   Overcast
10:55 AM 41.0 °F 33.5 °F 33.8 °F 76% 29.86 in 10.0 mi WNW 13.8 mph 18.4 mph N/A   Overcast
11:15 AM 41.0 °F 34.3 °F 35.6 °F 81% 29.87 in 10.0 mi WNW 11.5 mph - N/A   Overcast
11:35 AM 41.0 °F 33.5 °F 33.8 °F 76% 29.87 in 10.0 mi NW 13.8 mph - N/A   Overcast
11:55 AM 42.8 °F 35.8 °F 33.8 °F 70% 29.88 in 10.0 mi WNW 13.8 mph 19.6 mph N/A   Overcast
12:34 PM 42.8 °F 35.8 °F 33.8 °F 70% 29.88 in 10.0 mi NW 13.8 mph - N/A   Overcast
12:54 PM 42.8 °F 34.5 °F 33.8 °F 70% 29.88 in 10.0 mi NW 18.4 mph - N/A   Overcast
1:14 PM 44.6 °F 37.8 °F 33.8 °F 66% 29.87 in 10.0 mi NW 15.0 mph - N/A   Overcast
1:35 PM 42.8 °F 35.1 °F 33.8 °F 70% 29.88 in 10.0 mi NW 16.1 mph - N/A   Overcast
2:15 PM 42.8 °F 34.5 °F 33.8 °F 70% 29.88 in 10.0 mi NW 18.4 mph 24.2 mph N/A   Overcast
2:34 PM 42.8 °F 35.1 °F 33.8 °F 70% 29.88 in 10.0 mi NW 16.1 mph 20.7 mph N/A   Overcast
2:55 PM 42.8 °F 34.8 °F 33.8 °F 70% 29.89 in 10.0 mi NW 17.3 mph 21.9 mph N/A   Overcast
3:34 PM 42.8 °F 35.1 °F 33.8 °F 70% 29.90 in 10.0 mi NW 16.1 mph 21.9 mph N/A   Overcast
3:54 PM 42.8 °F 34.8 °F 33.8 °F 70% 29.91 in 10.0 mi NW 17.3 mph - N/A   Overcast
4:14 PM 42.8 °F 34.5 °F 33.8 °F 70% 29.92 in 10.0 mi NW 18.4 mph - N/A   Overcast
4:35 PM 42.8 °F 34.8 °F 33.8 °F 70% 29.92 in 10.0 mi NW 17.3 mph 21.9 mph N/A   Overcast
4:55 PM 42.8 °F 34.5 °F 33.8 °F 70% 29.93 in 10.0 mi NW 18.4 mph 21.9 mph N/A   Overcast
5:14 PM 42.8 °F 36.6 °F 33.8 °F 70% 29.94 in 10.0 mi NW 11.5 mph - N/A   Overcast
5:34 PM 42.8 °F 37.0 °F 35.6 °F 76% 29.94 in 10.0 mi NW 10.4 mph - N/A   Overcast
6:14 PM 42.8 °F 35.8 °F 35.6 °F 76% 29.95 in 10.0 mi NW 13.8 mph 17.3 mph N/A   Overcast
6:34 PM 42.8 °F 35.4 °F 35.6 °F 76% 29.96 in 10.0 mi NW 15.0 mph - N/A   Overcast
6:54 PM 42.8 °F 35.8 °F 33.8 °F 70% 29.97 in 10.0 mi NW 13.8 mph - N/A   Overcast
7:35 PM 41.0 °F 33.9 °F 33.8 °F 76% 29.98 in 10.0 mi NW 12.7 mph - N/A   Overcast
7:54 PM 41.0 °F 34.7 °F 33.8 °F 76% 29.98 in 10.0 mi NW 10.4 mph - N/A   Overcast
8:14 PM 41.0 °F 35.2 °F 33.8 °F 76% 29.98 in 10.0 mi NW 9.2 mph - N/A   Overcast
8:34 PM 41.0 °F 35.2 °F 33.8 °F 76% 29.98 in 10.0 mi NW 9.2 mph - N/A   Overcast
8:54 PM 39.2 °F 33.0 °F 33.8 °F 81% 29.98 in 10.0 mi NW 9.2 mph - N/A   Overcast
9:14 PM 39.2 °F 33.6 °F 33.8 °F 81% 29.98 in 10.0 mi WNW 8.1 mph - N/A   Overcast
9:34 PM 39.2 °F 33.0 °F 33.8 °F 81% 29.99 in 10.0 mi NW 9.2 mph - N/A   Overcast
9:54 PM 39.2 °F 33.0 °F 33.8 °F 81% 29.99 in 10.0 mi WNW 9.2 mph - N/A   Overcast
10:14 PM 39.2 °F 32.5 °F 33.8 °F 81% 29.99 in 10.0 mi WNW 10.4 mph - N/A   Overcast
10:34 PM 39.2 °F 33.6 °F 33.8 °F 81% 29.99 in 10.0 mi WNW 8.1 mph - N/A   Overcast
10:55 PM 39.2 °F 33.0 °F 33.8 °F 81% 29.99 in 10.0 mi NW 9.2 mph - N/A   Overcast
11:14 PM 39.2 °F 34.2 °F 32.0 °F 75% 29.99 in 10.0 mi NW 6.9 mph - N/A   Overcast
11:34 PM 39.2 °F 34.2 °F 33.8 °F 81% 30.00 in 10.0 mi NW 6.9 mph - N/A   Overcast
11:54 PM 39.2 °F 34.2 °F 33.8 °F 81% 30.00 in 10.0 mi NW 6.9 mph - N/A   Overcast